Flag Weather past 2 weeks in Laredo, Texas, U.S.A.

Now
69 °F

Clear.


Feels Like: 69 °F
Forecast: 53 / 75 °F
Wind: 6 mph from Northeast

Location: Laredo International Airport

Current Time: Oct 31, 2014 at 9:41:51 PM

Latest Report: Oct 31, 2014 at 8:56 PM


Visibility: 10 mi

Pressure: 30.24 "Hg

Humidity: 51%

Dew point: 50 °F

Location of LaredoLocation

Historic Weather in Laredo — Graph

°F

Laredo temperature yesterday

Maximum temperature yesterday: 89 °F (at 3:56 PM)
Minimum temperature yesterday: 66 °F (at 7:56 AM)
Average temperature yesterday: 77 °F

Past Weeks' High & Low Weather Summary

 TemperatureHumidityPressure
High92 °F (Oct 17, 3:56 PM)100% (Oct 18, 3:56 AM)30.26 "Hg (Oct 18, 3:56 AM)
Low63 °F (Oct 26, 7:56 AM)29% (Oct 17, 4:56 PM)29.79 "Hg (Oct 27, 4:56 PM)
Average77 °F68%30.00 "Hg
* Reported Oct 16 7:56 PM — Oct 31 7:56 PM, Laredo, Weather by CustomWeather, © 2014

Note: Actual official high and low records may vary slightly from our data, if they occured in-between our weather recording intervals... More about our weather records

Advertising

Laredo weather history for previous 24 hours

 ConditionsComfort  
Time TempWeatherWind HumidityBarometerVisibility
7:56 PM
Oct 31
69 °FClear.No wind59%30.22 "Hg10 mi
6:56 PM72 °FSunny.7 mph46%30.20 "Hg10 mi
5:56 PM78 °FSunny.9 mph35%30.19 "Hg10 mi
4:56 PM79 °FSunny.10 mph38%30.19 "Hg10 mi
3:56 PM78 °FPassing clouds.6 mph45%30.19 "Hg10 mi
3:01 PM79 °FScattered clouds.16 mph45%30.23 "Hg10 mi
1:56 PM73 °FPartly sunny.10 mph71%30.23 "Hg10 mi
12:56 PM71 °FMore clouds than sun.7 mph84%30.25 "Hg10 mi
11:56 AM68 °FMostly cloudy.9 mph96%30.26 "Hg10 mi
10:56 AM67 °FLight rain. Broken clouds.8 mph93%30.25 "Hg10 mi
9:56 AM66 °FLight rain. Broken clouds.No wind97%30.24 "Hg10 mi
8:56 AM66 °FRain. Mostly cloudy.12 mph97%30.21 "Hg10 mi
8:03 AM68 °FPartly cloudy.21 mph100%30.19 "Hg10 mi
7:56 AM69 °FPassing clouds.15 mph97%30.15 "Hg10 mi
6:56 AM69 °FClear.No wind93%30.11 "Hg10 mi
5:56 AM69 °FClear.No wind97%30.07 "Hg10 mi
4:56 AM70 °FClear.No wind90%30.06 "Hg10 mi
3:56 AM71 °FClear.No wind87%30.06 "Hg10 mi
2:56 AM72 °FClear.7 mph84%30.06 "Hg10 mi
1:56 AM73 °FClear.8 mph82%30.07 "Hg10 mi
12:56 AM73 °FClear.7 mph82%30.07 "Hg10 mi
11:56 PM
Oct 30
75 °FClear.9 mph74%30.07 "Hg10 mi
10:56 PM76 °FClear.10 mph69%30.06 "Hg10 mi
9:56 PM78 °FClear.9 mph56%30.05 "Hg10 mi
Weather by CustomWeather, © 2014

See weather overviewHow to use our weather pages